,,PressureMeas_1m,,PRMeasQMR101_1,,RHStat155_1m_1,,SRMeasQMS101R_1m,,TAStat155_1m_1,,GenWind_1,,GenWind_1,
2017-04-24, 07:00:06,VALID,918.096,VALID,0.0,VALID,98.087,VALID,40.41,VALID,20.738,VALID,358.0,VALID,0.0,
2017-04-24, 07:01:06,VALID,918.099,VALID,0.0,VALID,98.029,VALID,41.017,VALID,20.741,VALID,357.0,VALID,0.0,
2017-04-24, 07:02:06,VALID,918.113,VALID,0.0,VALID,98.016,VALID,44.383,VALID,20.74,VALID,357.0,VALID,0.0,
2017-04-24, 07:03:06,VALID,918.127,VALID,0.0,VALID,98.016,VALID,48.474,VALID,20.756,VALID,357.0,VALID,0.0,
2017-04-24, 07:04:06,VALID,918.149,VALID,0.0,VALID,98.018,VALID,53.42,VALID,20.776,VALID,344.0,VALID,0.001,
2017-04-24, 07:05:06,VALID,918.161,VALID,0.0,VALID,97.939,VALID,58.494,VALID,20.766,VALID,217.0,VALID,0.021,
2017-04-24, 07:06:06,VALID,918.171,VALID,0.0,VALID,97.928,VALID,67.304,VALID,20.758,VALID,217.0,VALID,0.008,
2017-04-24, 07:07:06,VALID,918.177,VALID,0.0,VALID,97.967,VALID,73.051,VALID,20.779,VALID,204.0,VALID,0.089,
2017-04-24, 07:08:06,VALID,918.185,VALID,0.0,VALID,98.026,VALID,70.713,VALID,20.82,VALID,176.0,VALID,0.257,
2017-04-24, 07:09:06,VALID,918.195,VALID,0.0,VALID,98.03,VALID,62.179,VALID,20.847,VALID,172.0,VALID,0.347,
2017-04-24, 07:10:06,VALID,918.199,VALID,0.0,VALID,97.935,VALID,64.115,VALID,20.827,VALID,167.0,VALID,0.329,
2017-04-24, 07:11:06,VALID,918.215,VALID,0.0,VALID,97.929,VALID,97.067,VALID,20.833,VALID,180.0,VALID,0.346,
2017-04-24, 07:12:06,VALID,918.226,VALID,0.0,VALID,97.866,VALID,117.028,VALID,20.837,VALID,182.0,VALID,0.433,
2017-04-24, 07:13:06,VALID,918.25,VALID,0.0,VALID,97.81,VALID,103.811,VALID,20.836,VALID,191.0,VALID,0.362,
2017-04-24, 07:14:06,VALID,918.273,VALID,0.0,VALID,97.815,VALID,76.935,VALID,20.853,VALID,189.0,VALID,0.217,
2017-04-24, 07:15:06,VALID,918.29,VALID,0.0,VALID,97.787,VALID,74.464,VALID,20.872,VALID,190.0,VALID,0.045,
2017-04-24, 07:16:06,VALID,918.299,VALID,0.0,VALID,97.719,VALID,84.407,VALID,20.875,VALID,189.0,VALID,0.038,
2017-04-24, 07:17:06,VALID,918.319,VALID,0.0,VALID,97.603,VALID,123.236,VALID,20.877,VALID,174.0,VALID,0.334,
2017-04-24, 07:18:06,VALID,918.322,VALID,0.0,VALID,97.671,VALID,181.633,VALID,20.957,VALID,178.0,VALID,0.48,
2017-04-24, 07:19:06,VALID,918.322,VALID,0.0,VALID,97.601,VALID,188.055,VALID,21.016,VALID,171.0,VALID,0.371,
2017-04-24, 07:20:06,VALID,918.318,VALID,0.0,VALID,97.58,VALID,172.748,VALID,21.126,VALID,172.0,VALID,0.335,
2017-04-24, 07:21:06,VALID,918.322,VALID,0.0,VALID,97.37,VALID,155.262,VALID,21.212,VALID,158.0,VALID,0.456,
2017-04-24, 07:22:06,VALID,918.327,VALID,0.0,VALID,96.589,VALID,162.16,VALID,21.208,VALID,151.0,VALID,0.824,
2017-04-24, 07:23:06,VALID,918.337,VALID,0.0,VALID,96.217,VALID,158.3,VALID,21.254,VALID,162.0,VALID,0.804,
2017-04-24, 07:24:06,VALID,918.342,VALID,0.0,VALID,95.757,VALID,194.448,VALID,21.274,VALID,160.0,VALID,0.458,
2017-04-24, 07:25:06,VALID,918.376,VALID,0.0,VALID,95.893,VALID,181.383,VALID,21.374,VALID,184.0,VALID,0.129,
2017-04-24, 07:26:06,VALID,918.394,VALID,0.0,VALID,95.233,VALID,164.098,VALID,21.51,VALID,133.0,VALID,0.436,
2017-04-24, 07:27:06,VALID,918.425,VALID,0.0,VALID,94.531,VALID,179.948,VALID,21.648,VALID,108.0,VALID,0.828,
2017-04-24, 07:28:06,VALID,918.437,VALID,0.0,VALID,94.578,VALID,197.651,VALID,21.732,VALID,101.0,VALID,0.811,
2017-04-24, 07:29:06,VALID,918.469,VALID,0.0,VALID,94.328,VALID,225.525,VALID,21.726,VALID,104.0,VALID,0.748,
2017-04-24, 07:30:06,VALID,918.469,VALID,0.0,VALID,94.275,VALID,199.947,VALID,21.651,VALID,129.0,VALID,0.633,
2017-04-24, 07:31:06,VALID,918.489,VALID,0.0,VALID,93.837,VALID,140.689,VALID,21.626,VALID,150.0,VALID,0.982,
2017-04-24, 07:32:06,VALID,918.508,VALID,0.0,VALID,93.688,VALID,118.899,VALID,21.56,VALID,135.0,VALID,0.949,
2017-04-24, 07:33:06,VALID,918.512,VALID,0.0,VALID,93.463,VALID,120.58,VALID,21.459,VALID,122.0,VALID,1.071,
2017-04-24, 07:34:06,VALID,918.536,VALID,0.0,VALID,94.147,VALID,132.099,VALID,21.427,VALID,139.0,VALID,0.923,
2017-04-24, 07:35:06,VALID,918.581,VALID,0.0,VALID,94.674,VALID,141.198,VALID,21.449,VALID,139.0,VALID,0.618,
2017-04-24, 07:36:06,VALID,918.621,VALID,0.0,VALID,94.778,VALID,162.559,VALID,21.467,VALID,129.0,VALID,0.537,
2017-04-24, 07:37:06,VALID,918.638,VALID,0.0,VALID,94.652,VALID,161.087,VALID,21.469,VALID,153.0,VALID,0.893,
2017-04-24, 07:38:06,VALID,918.675,VALID,0.0,VALID,94.569,VALID,148.058,VALID,21.417,VALID,148.0,VALID,0.909,
2017-04-24, 07:39:06,VALID,918.692,VALID,0.0,VALID,95.016,VALID,173.366,VALID,21.387,VALID,149.0,VALID,0.926,
2017-04-24, 07:40:06,VALID,918.698,VALID,0.0,VALID,95.373,VALID,219.07,VALID,21.432,VALID,156.0,VALID,0.823,
2017-04-24, 07:41:06,VALID,918.706,VALID,0.0,VALID,94.72,VALID,311.099,VALID,21.44,VALID,157.0,VALID,1.16,
2017-04-24, 07:42:06,VALID,918.703,VALID,0.0,VALID,95.03,VALID,257.511,VALID,21.445,VALID,143.0,VALID,1.154,
2017-04-24, 07:43:06,VALID,918.706,VALID,0.0,VALID,96.069,VALID,238.878,VALID,21.569,VALID,102.0,VALID,0.929,
2017-04-24, 07:44:06,VALID,918.699,VALID,0.0,VALID,95.533,VALID,250.115,VALID,21.582,VALID,103.0,VALID,1.072,
2017-04-24, 07:45:06,VALID,918.695,VALID,0.0,VALID,95.067,VALID,231.751,VALID,21.498,VALID,81.0,VALID,1.095,
2017-04-24, 07:46:06,VALID,918.711,VALID,0.0,VALID,95.596,VALID,198.503,VALID,21.436,VALID,84.0,VALID,0.882,
2017-04-24, 07:47:06,VALID,918.731,VALID,0.0,VALID,95.895,VALID,186.12,VALID,21.404,VALID,128.0,VALID,0.999,
2017-04-24, 07:48:06,VALID,918.74,VALID,0.0,VALID,95.473,VALID,209.436,VALID,21.376,VALID,131.0,VALID,1.059,
2017-04-24, 07:49:06,VALID,918.757,VALID,0.0,VALID,94.958,VALID,226.284,VALID,21.372,VALID,144.0,VALID,1.226,
2017-04-24, 07:50:06,VALID,918.76,VALID,0.0,VALID,94.987,VALID,200.482,VALID,21.379,VALID,134.0,VALID,0.992,
2017-04-24, 07:51:06,VALID,918.76,VALID,0.0,VALID,94.603,VALID,218.228,VALID,21.368,VALID,147.0,VALID,0.722,
2017-04-24, 07:52:06,VALID,918.757,VALID,0.0,VALID,94.772,VALID,273.598,VALID,21.398,VALID,126.0,VALID,0.619,
2017-04-24, 07:53:06,VALID,918.746,VALID,0.0,VALID,94.882,VALID,303.09,VALID,21.493,VALID,95.0,VALID,0.818,
2017-04-24, 07:54:06,VALID,918.731,VALID,0.0,VALID,94.981,VALID,248.681,VALID,21.522,VALID,80.0,VALID,0.729,
2017-04-24, 07:55:06,VALID,918.73,VALID,0.0,VALID,95.153,VALID,257.506,VALID,21.563,VALID,98.0,VALID,0.859,
2017-04-24, 07:56:06,VALID,918.722,VALID,0.0,VALID,94.262,VALID,380.691,VALID,21.554,VALID,98.0,VALID,0.871,
2017-04-24, 07:57:06,VALID,918.733,VALID,0.0,VALID,94.208,VALID,360.303,VALID,21.636,VALID,85.0,VALID,0.314,
2017-04-24, 07:58:06,VALID,918.742,VALID,0.0,VALID,93.745,VALID,176.66,VALID,21.892,VALID,77.0,VALID,0.051,
2017-04-24, 07:59:06,VALID,918.732,VALID,0.0,VALID,91.801,VALID,159.77,VALID,22.106,VALID,142.0,VALID,0.201,
2017-04-24, 08:00:06,VALID,918.726,VALID,0.0,VALID,90.796,VALID,187.682,VALID,22.154,VALID,121.0,VALID,0.359,
2017-04-24, 08:01:06,VALID,918.72,VALID,0.0,VALID,90.763,VALID,310.402,VALID,22.149,VALID,111.0,VALID,0.366,
2017-04-24, 08:02:06,VALID,918.715,VALID,0.0,VALID,90.715,VALID,389.769,VALID,22.155,VALID,89.0,VALID,0.314,
2017-04-24, 08:03:06,VALID,918.687,VALID,0.0,VALID,90.74,VALID,382.57,VALID,22.303,VALID,21.0,VALID,0.204,
2017-04-24, 08:04:06,VALID,918.669,VALID,0.0,VALID,89.933,VALID,384.891,VALID,22.608,VALID,3.0,VALID,0.011,
2017-04-24, 08:05:06,VALID,918.651,VALID,0.0,VALID,88.649,VALID,387.8,VALID,22.841,VALID,308.0,VALID,0.073,
2017-04-24, 08:06:06,VALID,918.648,VALID,0.0,VALID,88.773,VALID,392.242,VALID,23.084,VALID,88.0,VALID,0.51,
2017-04-24, 08:07:06,VALID,918.651,VALID,0.0,VALID,87.276,VALID,398.104,VALID,23.136,VALID,127.0,VALID,0.494,
2017-04-24, 08:08:06,VALID,918.648,VALID,0.0,VALID,86.558,VALID,405.534,VALID,23.235,VALID,129.0,VALID,0.234,
2017-04-24, 08:09:06,VALID,918.664,VALID,0.0,VALID,84.853,VALID,418.743,VALID,23.434,VALID,197.0,VALID,0.202,
2017-04-24, 08:10:06,VALID,918.668,VALID,0.0,VALID,84.692,VALID,308.204,VALID,23.682,VALID,153.0,VALID,0.149,
2017-04-24, 08:11:06,VALID,918.683,VALID,0.0,VALID,82.34,VALID,393.399,VALID,23.824,VALID,100.0,VALID,0.54,
2017-04-24, 08:12:06,VALID,918.69,VALID,0.0,VALID,82.402,VALID,414.041,VALID,23.62,VALID,103.0,VALID,0.388,
2017-04-24, 08:13:06,VALID,918.697,VALID,0.0,VALID,83.657,VALID,420.581,VALID,23.59,VALID,88.0,VALID,0.266,
2017-04-24, 08:14:06,VALID,918.693,VALID,0.0,VALID,82.711,VALID,422.945,VALID,23.777,VALID,73.0,VALID,0.065,
2017-04-24, 08:15:06,VALID,918.698,VALID,0.0,VALID,82.561,VALID,425.306,VALID,24.154,VALID,37.0,VALID,0.4,
2017-04-24, 08:16:06,VALID,918.709,VALID,0.0,VALID,81.385,VALID,428.512,VALID,24.501,VALID,38.0,VALID,0.479,
2017-04-24, 08:17:06,VALID,918.728,VALID,0.0,VALID,80.284,VALID,432.372,VALID,24.769,VALID,45.0,VALID,0.301,
2017-04-24, 08:18:06,VALID,918.745,VALID,0.0,VALID,79.906,VALID,434.767,VALID,24.953,VALID,61.0,VALID,0.509,
2017-04-24, 08:19:06,VALID,918.781,VALID,0.0,VALID,78.36,VALID,439.416,VALID,24.856,VALID,101.0,VALID,0.603,
2017-04-24, 08:20:06,VALID,918.797,VALID,0.0,VALID,80.224,VALID,444.51,VALID,24.534,VALID,106.0,VALID,0.432,
2017-04-24, 08:21:06,VALID,918.813,VALID,0.0,VALID,80.333,VALID,448.168,VALID,24.363,VALID,139.0,VALID,0.674,
2017-04-24, 08:22:06,VALID,918.826,VALID,0.0,VALID,79.286,VALID,449.022,VALID,24.12,VALID,147.0,VALID,0.708,
2017-04-24, 08:23:06,VALID,918.837,VALID,0.0,VALID,80.562,VALID,447.847,VALID,24.029,VALID,148.0,VALID,0.89,
2017-04-24, 08:24:06,VALID,918.851,VALID,0.0,VALID,79.944,VALID,451.732,VALID,23.973,VALID,181.0,VALID,0.721,
2017-04-24, 08:25:06,VALID,918.87,VALID,0.0,VALID,79.691,VALID,461.391,VALID,24.056,VALID,166.0,VALID,0.902,
2017-04-24, 08:26:06,VALID,918.874,VALID,0.0,VALID,78.829,VALID,465.993,VALID,24.073,VALID,159.0,VALID,0.713,
2017-04-24, 08:27:06,VALID,918.88,VALID,0.0,VALID,79.312,VALID,471.794,VALID,24.042,VALID,150.0,VALID,0.649,
2017-04-24, 08:28:06,VALID,918.866,VALID,0.0,VALID,80.716,VALID,482.677,VALID,23.988,VALID,145.0,VALID,0.787,
2017-04-24, 08:29:06,VALID,918.878,VALID,0.0,VALID,80.505,VALID,493.135,VALID,24.093,VALID,154.0,VALID,1.18,
2017-04-24, 08:30:06,VALID,918.879,VALID,0.0,VALID,78.995,VALID,491.865,VALID,24.108,VALID,147.0,VALID,1.23,
2017-04-24, 08:31:06,VALID,918.886,VALID,0.0,VALID,78.983,VALID,505.221,VALID,23.992,VALID,155.0,VALID,0.872,
2017-04-24, 08:32:06,VALID,918.907,VALID,0.0,VALID,78.957,VALID,452.277,VALID,23.983,VALID,150.0,VALID,1.173,
2017-04-24, 08:33:06,VALID,918.92,VALID,0.0,VALID,79.691,VALID,478.314,VALID,23.886,VALID,133.0,VALID,1.043,
2017-04-24, 08:34:06,VALID,918.929,VALID,0.0,VALID,79.409,VALID,502.115,VALID,23.919,VALID,127.0,VALID,0.807,
2017-04-24, 08:35:06,VALID,918.95,VALID,0.0,VALID,78.43,VALID,505.647,VALID,24.12,VALID,133.0,VALID,0.761,
2017-04-24, 08:36:06,VALID,918.96,VALID,0.0,VALID,78.092,VALID,508.11,VALID,24.119,VALID,144.0,VALID,0.761,
2017-04-24, 08:37:06,VALID,918.964,VALID,0.0,VALID,78.92,VALID,502.468,VALID,24.088,VALID,147.0,VALID,0.659,
